Carbondale, IL

2:29 AM CST on December 11, 2019 (GMT -0600)
Southern Illinois

Weather History for KMDH - October, 2019

Change the Weather History Date:

Thursday, October 10, 2019

  Actual Average Record
Temperature  
Mean Temperature 68 °F -  
Max Temperature 84 °F 69 °F 91 °F (1924)
Min Temperature 55 °F 43 °F 25 °F (1964)
Cooling Degree Days 4    
Growing Degree Days 18 (Base 50)    
Moisture  
Dew Point 61 °F    
Average Humidity 74    
Maximum Humidity 96    
Minimum Humidity 52    
Precipitation  
Precipitation 0.00 in - - ()
Sea Level Pressure  
Sea Level Pressure 29.97 in    
Wind  
Wind Speed 8 mph (SSE)    
Max Wind Speed 15 mph    
Max Gust Speed 21 mph    
Visibility 10 miles    
Events Rain    
Averages and records for this station are not official NWS values.
T = Trace of Precipitation, MM = Missing Value Source: NWS Daily Summary

Daily Weather History Graph

Daily Weather History Graph

Search for Another Location

Airport or City:

Astronomy

Oct. 10, 2019 Rise Set
Actual Time 7:00 AM CDT 6:26 PM CDT
Civil Twilight 6:34 AM CDT 6:53 PM CDT
Nautical Twilight 6:03 AM CDT 7:23 PM CDT
Astronomical Twilight 5:33 AM CDT 7:53 PM CDT
Moon 5:24 PM CDT (10/10) 3:49 AM CDT (10/10)
Length of Visible Light 12h 19m
Length of Day
11h 26m
Waxing Gibbous, 91% of the Moon is Illuminated
Oct 10
Waxing Gibbous
Oct 13
Full
Oct 21
Last Quarter
Oct 27
New
Nov 4
First Quarter

Hourly Weather History & Observations

Time (CDT) Temp. Heat Index Dew Point Humidity Pressure Visibility Wind Dir Wind Speed Gust Speed Precip Events Conditions
12:52 AM 61.0 °F - 55.0 °F 81% 30.01 in 10.0 mi ESE 6.9 mph - N/A   Clear
2:52 AM 55.0 °F - 53.1 °F 93% 30.02 in 10.0 mi ESE 5.8 mph - N/A   Clear
3:52 AM 55.9 °F - 54.0 °F 93% 30.02 in 10.0 mi East 3.5 mph - N/A   Partly Cloudy
4:52 AM 55.0 °F - 53.1 °F 93% 30.01 in 10.0 mi Calm Calm - N/A   Partly Cloudy
5:52 AM 55.0 °F - 54.0 °F 96% 30.00 in 10.0 mi ESE 5.8 mph - N/A   Scattered Clouds
6:52 AM 57.9 °F - 55.9 °F 93% 30.01 in 10.0 mi ESE 5.8 mph - N/A   Clear
7:52 AM 61.0 °F - 57.9 °F 90% 30.01 in 10.0 mi SE 6.9 mph - N/A   Scattered Clouds
8:52 AM 66.0 °F - 62.1 °F 87% 30.03 in 10.0 mi SSE 8.1 mph - N/A   Partly Cloudy
9:52 AM 70.0 °F - 62.1 °F 76% 30.01 in 10.0 mi SSE 11.5 mph - N/A   Clear
10:52 AM 73.9 °F - 63.0 °F 68% 30.01 in 10.0 mi South 13.8 mph - N/A   Clear
11:52 AM 78.1 °F - 64.0 °F 62% 30.01 in 10.0 mi South 11.5 mph - N/A   Clear
12:52 PM 82.9 °F 84.4 °F 64.0 °F 53% 29.98 in 10.0 mi South 10.4 mph - N/A   Partly Cloudy
1:52 PM 82.0 °F 83.1 °F 63.0 °F 52% 29.95 in 10.0 mi SSE 15.0 mph - N/A   Partly Cloudy
2:52 PM 82.0 °F 83.4 °F 64.0 °F 54% 29.94 in 10.0 mi South 10.4 mph - N/A   Clear
3:52 PM 82.0 °F 83.4 °F 64.0 °F 54% 29.93 in 10.0 mi SSE 6.9 mph - N/A   Mostly Cloudy
4:52 PM 82.0 °F 83.1 °F 63.0 °F 52% 29.91 in 10.0 mi South 9.2 mph - N/A   Clear
5:52 PM 77.0 °F - 63.0 °F 62% 29.91 in 10.0 mi SE 6.9 mph - N/A   Clear
6:52 PM 75.0 °F - 64.0 °F 69% 29.92 in 10.0 mi SE 8.1 mph - N/A   Clear
7:52 PM 73.9 °F - 64.0 °F 71% 29.90 in 10.0 mi SE 6.9 mph - N/A   Clear
8:52 PM 72.0 °F - 64.0 °F 76% 29.93 in 10.0 mi SSE 9.2 mph - N/A   Mostly Cloudy
9:52 PM 75.0 °F - 64.9 °F 71% 29.94 in 10.0 mi SSE 10.4 mph - N/A   Mostly Cloudy
10:52 PM 75.0 °F - 66.0 °F 73% 29.93 in 10.0 mi South 15.0 mph 20.7 mph N/A   Partly Cloudy
11:52 PM 73.0 °F - 66.9 °F 81% 29.92 in 10.0 mi South 10.4 mph - 0.00 in Rain Light Rain